sat.trackr.live / text

‹ back to catalog

STARLINK-4276

NORAD 53179 · 2022-083AZ

PAYLOAD ACTIVE UNKNOWN

§ Identity

Operator
Country
US
Launch date
2022-07-17
Launch site
AFETR
Launch vehicle
Mass (kg)
RCS (m²)

Purposes: comms

External: N2YO · Heavens-Above · Gunter

§ Orbital elements

Epoch: 2026-09-19T18:41:28.992192Z

Period
93.85 min
Inclination
53.1604°
Eccentricity
0.0001158
Mean motion
15.34391808 rev/d
Perigee alt
461.9 km
Apogee alt
463.5 km
Semi-major
6,840.9 km
B*
1.1701e-5
RAAN
320.7541°
Arg perigee
74.0173°
Mean anomaly
286.0957°
Rev number
23,137

§ Raw data

STARLINK-42761 53179U 22083AZ  26262.77880778  .00000019  00000+0  11701-4 0  99932 53179  53.1604 320.7541 0001158  74.0173 286.0957 15.34391808231370

JSON: /api/v1/satellites/53179 · /tle

For live sub-satellite position, see the globe view (requires WebGL).

§ Visibility from observer

Set your observer location to see the next 7 days of passes ≥ 10°. The values pass through the URL so the page stays shareable.

No JS? Fill the form by hand. The geolocation button needs JavaScript.